Total_Precipitation_Accumulation
0.09 0.12 0.09 0.05 0.05 0.03 0.02 0.02 0.01 0.00 0.00 0.01 0.01 0.01 0.00 0.00 0.00 0.00 0.00 0.00 0.00 0.00 0.00 0.00 0.00 0.00 0.00 0.01 0.01 0.01 0.01 0.01 0.01 0.01 0.02 0.02 0.02 0.02 0.02 0.02 0.02 0.02 0.02 0.02
0.13 0.09 0.04 0.02 0.02 0.04 0.04 0.04 0.02 0.01 0.00 0.01 0.01 0.01 0.01 0.00 0.00 0.00 0.00 0.00 0.00 0.00 0.00 0.00 0.00 0.00 0.00 0.01 0.01 0.01 0.01 0.00 0.00 0.00 0.01 0.01 0.01 0.01 0.01 0.02 0.02 0.02 0.02 0.02
0.14 0.06 0.02 0.03 0.05 0.05 0.06 0.04 0.02 0.02 0.01 0.01 0.01 0.01 0.00 0.00 0.00 0.00 0.00 0.00 0.00 0.00 0.00 0.00 0.00 0.00 0.00 0.00 0.00 0.01 0.01 0.00 0.00 0.00 0.01 0.01 0.01 0.01 0.01 0.02 0.02 0.02 0.02 0.02
0.12 0.06 0.04 0.05 0.05 0.05 0.05 0.03 0.02 0.03 0.04 0.05 0.03 0.03 0.00 0.00 0.00 0.00 0.00 0.00 0.00 0.00 0.00 0.00 0.00 0.00 0.00 0.00 0.00 0.01 0.01 0.01 0.00 0.01 0.01 0.01 0.01 0.01 0.01 0.01 0.01 0.01 0.01 0.01
0.13 0.05 0.06 0.06 0.03 0.03 0.03 0.02 0.04 0.05 0.07 0.08 0.05 0.05 0.01 0.00 0.00 0.00 0.00 0.00 0.00 0.00 0.00 0.00 0.00 0.00 0.00 0.00 0.00 0.00 0.01 0.01 0.01 0.00 0.00 0.01 0.01 0.01 0.01 0.00 0.00 0.01 0.01 0.01
0.09 0.05 0.06 0.06 0.03 0.03 0.04 0.06 0.10 0.11 0.15 0.20 0.07 0.05 0.02 0.00 0.00 0.00 0.00 0.00 0.00 0.00 0.00 0.00 0.00 0.00 0.00 0.00 0.00 0.01 0.01 0.01 0.01 0.01 0.00 0.01 0.01 0.01 0.01 0.01 0.01 0.01 0.01 0.01
0.14 0.08 0.06 0.06 0.08 0.09 0.11 0.17 0.27 0.29 0.28 0.18 0.03 0.03 0.02 0.00 0.00 0.00 0.00 0.00 0.00 0.00 0.00 0.00 0.00 0.00 0.00 0.00 0.00 0.00 0.01 0.01 0.01 0.01 0.01 0.01 0.01 0.01 0.01 0.01 0.01 0.01 0.01 0.01
0.16 0.10 0.05 0.04 0.06 0.10 0.11 0.15 0.23 0.23 0.13 0.04 0.01 0.02 0.01 0.00 0.00 0.00 0.00 0.00 0.00 0.00 0.00 0.00 0.00 0.00 0.00 0.00 0.00 0.00 0.00 0.01 0.01 0.01 0.01 0.01 0.01 0.01 0.01 0.01 0.01 0.01 0.02 0.02
0.16 0.09 0.03 0.02 0.01 0.05 0.12 0.11 0.09 0.13 0.11 0.06 0.03 0.02 0.00 0.00 0.00 0.00 0.00 0.00 0.00 0.00 0.00 0.00 0.00 0.00 0.00 0.00 0.00 0.00 0.00 0.00 0.00 0.01 0.01 0.01 0.01 0.01 0.00 0.01 0.01 0.02 0.03 0.03
0.22 0.14 0.05 0.03 0.05 0.06 0.08 0.13 0.15 0.23 0.22 0.12 0.04 0.02 0.01 0.00 0.00 0.00 0.00 0.01 0.00 0.00 0.00 0.00 0.00 0.00 0.00 0.00 0.00 0.00 0.00 0.01 0.01 0.01 0.01 0.01 0.01 0.01 0.01 0.01 0.02 0.03 0.05 0.06
0.23 0.24 0.14 0.09 0.10 0.08 0.08 0.14 0.23 0.26 0.18 0.10 0.05 0.03 0.02 0.01 0.00 0.00 0.00 0.00 0.01 0.00 0.00 0.00 0.00 0.00 0.00 0.00 0.00 0.00 0.01 0.01 0.02 0.02 0.02 0.02 0.03 0.03 0.04 0.05 0.06 0.07 0.08 0.09
0.24 0.31 0.22 0.12 0.08 0.08 0.10 0.11 0.16 0.22 0.19 0.08 0.05 0.03 0.02 0.01 0.01 0.00 0.00 0.00 0.01 0.01 0.00 0.00 0.00 0.00 0.00 0.00 0.00 0.01 0.02 0.03 0.04 0.03 0.03 0.04 0.05 0.07 0.09 0.11 0.12 0.13 0.14 0.15
0.34 0.43 0.37 0.25 0.19 0.16 0.17 0.15 0.15 0.16 0.16 0.13 0.09 0.03 0.01 0.01 0.01 0.01 0.00 0.00 0.00 0.01 0.01 0.00 0.00 0.00 0.00 0.01 0.01 0.02 0.04 0.05 0.05 0.05 0.05 0.06 0.09 0.12 0.16 0.19 0.20 0.20 0.20 0.20
0.40 0.45 0.37 0.28 0.19 0.17 0.18 0.16 0.14 0.16 0.17 0.11 0.05 0.02 0.00 0.00 0.01 0.01 0.00 0.00 0.00 0.00 0.01 0.01 0.01 0.01 0.01 0.01 0.02 0.03 0.05 0.07 0.07 0.09 0.12 0.14 0.18 0.22 0.25 0.26 0.25 0.24 0.23 0.24
0.44 0.41 0.25 0.14 0.07 0.08 0.10 0.09 0.10 0.11 0.10 0.07 0.03 0.02 0.02 0.02 0.00 0.00 0.00 0.00 0.00 0.00 0.01 0.01 0.02 0.02 0.02 0.02 0.03 0.06 0.09 0.13 0.16 0.20 0.23 0.24 0.22 0.22 0.22 0.22 0.23 0.24 0.25 0.27
0.46 0.42 0.25 0.15 0.09 0.08 0.08 0.06 0.05 0.06 0.05 0.04 0.02 0.02 0.01 0.00 0.00 0.00 0.00 0.01 0.01 0.01 0.01 0.02 0.03 0.04 0.04 0.06 0.09 0.14 0.20 0.23 0.25 0.27 0.27 0.25 0.23 0.22 0.22 0.22 0.23 0.24 0.24 0.22
0.42 0.44 0.37 0.23 0.12 0.17 0.18 0.07 0.04 0.03 0.02 0.02 0.02 0.02 0.00 0.00 0.00 0.00 0.00 0.02 0.02 0.03 0.03 0.04 0.06 0.08 0.10 0.13 0.18 0.22 0.24 0.24 0.26 0.28 0.28 0.27 0.25 0.24 0.22 0.21 0.19 0.18 0.17 0.14
0.28 0.32 0.42 0.32 0.24 0.34 0.15 0.03 0.02 0.03 0.03 0.02 0.02 0.01 0.01 0.00 0.00 0.00 0.01 0.03 0.04 0.05 0.08 0.09 0.11 0.12 0.16 0.20 0.24 0.27 0.26 0.26 0.26 0.25 0.23 0.19 0.17 0.16 0.15 0.15 0.14 0.12 0.11 0.09
0.16 0.26 0.40 0.38 0.34 0.22 0.06 0.02 0.02 0.04 0.05 0.03 0.02 0.02 0.01 0.01 0.01 0.02 0.04 0.04 0.06 0.07 0.08 0.08 0.08 0.09 0.13 0.19 0.22 0.23 0.21 0.20 0.17 0.15 0.12 0.09 0.07 0.08 0.09 0.09 0.08 0.07 0.06 0.05
0.11 0.21 0.40 0.41 0.36 0.20 0.06 0.02 0.02 0.05 0.08 0.05 0.03 0.03 0.03 0.07 0.18 0.10 0.09 0.07 0.05 0.04 0.04 0.04 0.04 0.04 0.07 0.10 0.12 0.12 0.12 0.10 0.09 0.07 0.05 0.03 0.02 0.03 0.04 0.04 0.04 0.04 0.04 0.04
0.17 0.28 0.39 0.38 0.31 0.14 0.05 0.02 0.03 0.09 0.12 0.08 0.06 0.06 0.10 0.17 0.22 0.13 0.09 0.07 0.04 0.03 0.03 0.02 0.03 0.04 0.07 0.10 0.11 0.10 0.08 0.05 0.03 0.02 0.01 0.01 0.01 0.01 0.02 0.02 0.02 0.03 0.04 0.04
0.19 0.26 0.28 0.28 0.29 0.13 0.03 0.04 0.06 0.10 0.08 0.07 0.08 0.10 0.16 0.12 0.05 0.04 0.05 0.05 0.03 0.02 0.02 0.03 0.03 0.05 0.10 0.12 0.10 0.06 0.04 0.02 0.01 0.00 0.01 0.01 0.01 0.01 0.02 0.02 0.03 0.03 0.04 0.05
0.14 0.17 0.19 0.19 0.14 0.05 0.03 0.04 0.05 0.06 0.08 0.12 0.19 0.19 0.18 0.15 0.09 0.07 0.06 0.04 0.02 0.02 0.03 0.04 0.05 0.09 0.12 0.09 0.05 0.03 0.01 0.00 0.00 0.01 0.01 0.01 0.01 0.02 0.02 0.03 0.04 0.05 0.05 0.08
0.08 0.10 0.13 0.12 0.07 0.03 0.03 0.02 0.02 0.04 0.08 0.13 0.16 0.18 0.18 0.20 0.14 0.09 0.06 0.04 0.04 0.04 0.05 0.07 0.07 0.09 0.11 0.07 0.02 0.01 0.01 0.01 0.01 0.01 0.01 0.02 0.02 0.02 0.03 0.03 0.04 0.06 0.09 0.20
0.07 0.07 0.08 0.07 0.05 0.04 0.04 0.03 0.03 0.06 0.06 0.05 0.06 0.09 0.16 0.20 0.15 0.09 0.07 0.06 0.07 0.07 0.07 0.08 0.09 0.09 0.08 0.04 0.01 0.01 0.02 0.02 0.02 0.02 0.02 0.03 0.03 0.03 0.04 0.04 0.05 0.08 0.10 0.27
0.06 0.06 0.07 0.06 0.04 0.04 0.04 0.03 0.05 0.08 0.07 0.07 0.09 0.10 0.11 0.13 0.12 0.09 0.10 0.11 0.11 0.11 0.12 0.12 0.10 0.06 0.03 0.02 0.02 0.02 0.02 0.04 0.04 0.04 0.04 0.05 0.05 0.05 0.06 0.07 0.07 0.08 0.10 0.16